Location: Czekanka
(50.4925°N, 19.2643°E)
Time: 12:08:34
(UTC+00:00)

Cosmos 1812 - Pass Details

Date: 15 June 2024
Orbit: 464 x 470 km, 82.5° (Epoch: 15 July)

Event Time Altitude Azimuth Distance (km) Brightness Sun altitude
Rises 01:10:07 0° 355° (N) 2,536 7.1 -9.4°
Reaches altitude 10° 01:12:19 10° 4° (N) 1,650 6.3 -9.2°
Maximum altitude 01:15:43 39° 74° (ENE) 722 3.9 -8.9°
Drops below altitude 10° 01:19:05 10° 145° (SE) 1,629 5.0 -8.6°
Sets 01:21:15 0° 154° (SSE) 2,498 5.9 -8.4°
